www.pogodaiklimat.ru

Погода и климат >> Архив погоды >> Пакистан >> Ларкана


ПОГОДА в Ларкане

  • Прогноз погоды в Ларкане
  • Монитор погоды в Ларкане

АРХИВ ПОГОДЫ в Ларкане

Время (UTC), дата Ветер
(напр.,м/с)
 
Видим.   Явления Облачность Т
(С)
Тd
(С)
f
(%)
Тe
(С)
Тes
(С)
Комфортность P
(гПа)
Po
(гПа)
Тmin
(С)
Tmax
(С)
R
(мм)
R24
(мм)
S
(см)
12 11.08 СВ 4 4000 м 5/0
[Ac trans]
+35.0 +28.3 68 +56 +58 опасность
перегрева
996.3 990.3 +35.5
15 11.08 СВ 3 4000 м 5/0
[Ac trans]
+34.5 +28.5 71 +57 +57 опасность
перегрева
996.9 991.2
18 11.08 СВ 2 4000 м 5/0
[Ac trans]
+32.0 +27.2 76 +50 +50 опасность
перегрева
999.7 993.9
21 11.08 СВ 3 4000 м 5/0
[Ac trans]
+31.0 +26.9 79 +48 +48 опасность
перегрева
998.5 992.7
00 12.08 СВ 2 4000 м 5/0
[Ac trans]
+30.0 +26.5 82 +46 +46 опасность
перегрева
997.4 991.3
03 12.08 Ю 2 4000 м 5/0
[Ac trans]
+31.5 +26.7 76 +49 +52 опасность
перегрева
1001.5 995.4 +29.5
09 12.08 Ю 2 4000 м 6/0
[Ac trans]
+35.0 +26.8 63 +53 +64 опасность
перегрева
1001.1 995.3
12 12.08 Ю 1 4000 м 6/0
[Ac trans]
+35.0 +26.8 63 +53 +56 опасность
перегрева
993.6 +35.5
15 12.08 ЮВ 2 4000 м 3/0
[Ac trans]
+33.5 +26.6 67 +50 +50 опасность
перегрева
1000.3 994.5
18 12.08 ЮВ 1 4000 м 3/0
[Ac trans]
+31.0 +25.4 72 +45 +45 опасность
перегрева
1001.9 996.1
21 12.08 Ю 2 4000 м ясно +29.5 +26.0 81 +44 +44 опасность
перегрева
1000.8 994.9
00 13.08 Ю 3 4000 м ясно +28.0 +25.2 85 +41 +41 опасность
перегрева
999.6 993.4
03 13.08 Ю 3 4000 м ясно +29.0 +26.2 85 +44 +48 опасность
перегрева
1000.6 994.4 +27.0
06 13.08 Ю 1 4000 м ясно +33.0 +26.8 70 +51 +72 опасность
перегрева
1001.3 995.5
09 13.08 Ю 1 4000 м ясно +34.5 +27.0 65 +52 +74 опасность
перегрева
999.7 993.9
12 13.08 Ю 1 4000 м ясно +36.5 +26.2 56 +53 +57 опасность
перегрева
998.5 992.4 +37.0
15 13.08 Ю 1 4000 м ясно +34.0 +25.7 62 +49 +49 опасность
перегрева
999.7 993.9
18 13.08 Ю 2 4000 м ясно +32.0 +25.0 67 +46 +46 опасность
перегрева
1001.2 995.4
21 13.08 Ю 1 4000 м ясно +29.0 +24.0 74 +40 +40 очень
душно
1000.2 994.3
00 14.08 ЮВ 2 4000 м ясно +27.0 +23.4 81 +37 +37 очень
душно
998.9 992.7
03 14.08 Ю 2 4000 м ясно +29.0 +24.8 78 +41 +46 опасность
перегрева
1000.1 994.8 +26.5
06 14.08 Ю 2 4000 м ясно +32.5 +26.0 69 +48 +67 опасность
перегрева
1002.3 996.5
09 14.08 Ю 1 4000 м ясно +36.0 +25.6 55 +51 +72 опасность
перегрева
1000.1 994.4
12 14.08 Ю 1 4000 м 3/0
[Ac trans]
+36.5 +26.2 56 +53 +57 опасность
перегрева
999.0 993.0 +37.0
15 14.08 Ю 2 4000 м 3/0
[Ac trans]
+34.0 +24.9 59 +47 +47 опасность
перегрева
1000.2 994.4
18 14.08 Ю 2 4000 м 4/0
[Ac trans]
+31.5 +24.4 66 +44 +44 опасность
перегрева
998.9 993.1
21 14.08 Ю 3 4000 м 4/0
[Ac trans]
+28.5 +23.5 74 +39 +39 очень
душно
1002.0 996.1
00 15.08 ЮВ 2 4000 м 4/0
[Ac trans]
+26.5 +22.9 81 +35 +35 очень
душно
1001.1 994.8
03 15.08 Ю 1 4000 м 4/0
[Ac trans]
+28.5 +24.8 80 +41 +45 опасность
перегрева
1002.7 996.5 +26.0
06 15.08 Ю 1 4000 м 5/0
[Ac trans]
+32.0 +24.2 63 +44 +59 опасность
перегрева
1003.7 997.9
09 15.08 Ю 2 4000 м 3/0
[Ac trans]
+37.5 +25.8 51 +52 +67 опасность
перегрева
1001.0 995.3
12 15.08 ЮВ 1 4000 м 3/0
[Ac trans]
+38.0 +25.6 49 +52 +56 опасность
перегрева
999.2 993.2 +38.5
15 15.08 Ю 1 4000 м 3/0
[Ac trans]
+36.0 +24.9 53 +49 +49 опасность
перегрева
1000.9 995.2
18 15.08 Ю 1 4000 м 4/0
[Ac trans]
+33.0 +23.8 59 +45 +45 опасность
перегрева
1001.9 996.1
21 15.08 Ю 3 4000 м 4/0
[Ac trans]
+30.0 +22.8 65 +40 +40 очень
душно
1000.0 994.2
00 16.08 Ю 2 4000 м 4/0
[Ac trans]
+27.0 +21.8 73 +35 +35 очень
душно
999.0 993.1
03 16.08 Ю 1 4000 м 4/0
[Ac trans]
+29.0 +22.4 68 +38 +42 очень
душно
999.8 993.9 +26.5
06 16.08 Ю 2 4000 м 4/0
[Ac trans]
+32.5 +24.0 61 +44 +58 опасность
перегрева
1000.5 994.7
09 16.08 Ю 1 4000 м 5/0
[Ac trans]
+37.0 +26.0 53 +52 +67 опасность
перегрева
998.1 992.4
12 16.08 Ю 2 4000 м 5/0
[Ac trans]
+39.0 +26.8 50 +55 +58 опасность
перегрева
993.9 987.9 +39.5
15 16.08 Ю 1 4000 м 5/0
[Ac trans]
+36.5 +25.5 53 +51 +51 опасность
перегрева
997.5 991.8
18 16.08 Ю 2 4000 м 5/0
[Ac trans]
+33.5 +24.4 59 +46 +46 опасность
перегрева
999.1 993.3
21 16.08 Ю 4 4000 м 5/0
[Ac trans]
+30.5 +23.3 65 +41 +41 опасность
перегрева
997.4 991.6
03 17.08 Ю 2 4000 м 4/0
[Ac trans]
+29.5 +23.0 68 +39 +43 очень
душно
998.3 992.2 +27.0
06 17.08 Ю 1 4000 м 5/0
[Ac trans]
+32.5 +24.0 61 +44 +59 опасность
перегрева
999.5 993.7
09 17.08 Ю 3 4000 м ясно +27.5 +22.4 74 +36 +46 очень
душно
996.5 990.3
12 17.08 ЮВ 1 4000 м ясно +39.0 +27.0 51 +56 +61 опасность
перегрева
997.6 991.6 +39.5
15 17.08 Ю 1 4000 м ясно +36.0 +28.7 66 +58 +58 опасность
перегрева
998.1 992.4
18 17.08 Ю 1 4000 м ясно +33.0 +28.3 76 +54 +54 опасность
перегрева
998.7 992.9
21 17.08 Ю 2 4000 м ясно +30.5 +27.8 86 +50 +50 опасность
перегрева
998.8 993.0
00 18.08 Ю 2 4000 м ясно +29.0 +26.2 85 +44 +44 опасность
перегрева
999.0 992.9
03 18.08 ЮВ 2 4000 м ясно +29.5 +26.7 85 +46 +50 опасность
перегрева
1001.4 995.2 +28.5
06 18.08 ЮВ 1 4000 м ясно +33.5 +28.1 73 +54 +75 опасность
перегрева
1002.3 996.5

 

Местоположение метеостанции Ларкана (Пакистан): широта 27.55 долгота 68.17 высота над уровнем моря 52 м.

В архиве по умолчанию представлена погода в Ларкане за последнюю неделю. Архивные данные за месяц целиком и за предыдущие месяцы, начиная с января 2011 года, Вы можете получить, выбрав интересующий диапазон дат из раскрывающегося списка и нажав кнопку "Ввод!".


*Определитесь, кто Вы:
робот инопланетянин человек

Внимание! Время в таблицах - всемирное. Для получения местного времени необходимо прибавить поправку, которая равна 5 ч.

Смотрите также архив погоды в соседних городах и на ближайших метеорологических станциях:

Погода в Мохенджо-Даро (Пакистан) (26 км)
Погода в Суккуре (Пакистан) (62 км)
Погода в Рохри (Пакистан) (73 км)
Погода в Пад Идан (Пакистан) (78 км)
Погода в Джейкобабаде (Пакистан) (88 км)
Погода в Навабшахе (Пакистан) (146 км)
Погода в Хуздаре (Пакистан) (155 км)
Погода в Даду (Пакистан) (168 км)
Погода в Сиби (Пакистан) (224 км)
Погода в Калате (Пакистан) (227 км)

Пояснения к столбцам:

Ветер - указаны скорость ветра в м/с - средняя за 10 мин, порывы в срок и между сроками (в фигурных скобках) и направление, откуда дует ветер: С - северный, СВ - северо-восточный, В - восточный, ЮВ - юго-восточный, Ю - южный, ЮЗ - юго-западный, З - западный, СЗ - северо-западный.
Видимость - горизонтальная дальность видимости в метрах или километрах. При видимости от 1 до 10 км при отсутствии осадков обычно наблюдается дымка, при ухудшении видимости до 1 км и менее - туман. В сухую погоду видимость может ухудшаться дымом, пылью или мглою.
Явления - указаны атмосферные явления, наблюдавшиеся в срок или в последний час перед сроком; фигурными скобками обозначены явления, наблюдавшиеся между сроками (за 1-3 часа до срока); квадратными скобками обозначены град или гололедные отложения с указанием их диаметра в мм.
Облачность - указаны через наклонную черту общая и нижняя облачность в баллах и высота нижней границы облаков в метрах; квадратными скобками обозначены формы облаков: Ci - перистые, Cs - перисто-слоистые, Cc - перисто-кучевые, Ac - высококучевые, As - высокослоистые, Sc - слоисто-кучевые, Ns - слоисто-дождевые, Cu - кучевые, Cb - кучево-дождевые. Подробнее классификацию облаков см. в Атласе облаков (PDF).
T - Температура воздуха - температура, измеренная на высоте 2 м над землей.
Td - Температура точки росы - температура, при понижении до которой содержащийся в воздухе водяной пар достигнет насыщения.
f - Относительная влажность воздуха - влажноcть воздуха, измеренная на высоте 2 м над землей.
Te - Эффективная температура - температура, которую ощущает одетый по сезону человек в тени. Характеристика душности погоды. При расчете учитывается влияние влажности воздуха и скорости ветра на теплоощущения человека.
Tes - Эффективная температура на солнце - температура, которую ощущает человек, с поправкой на солнечный нагрев. Характеристика знойности погоды. Зависит от высоты солнца над горизонтом, облачности и скорости ветра. Ночью, в пасмурную погоду, а также при ветре 12 м/с и более поправка равна нулю.
P - Атмосферное давление - приведенное к уровню моря атмосферное давление.
Po - Атмосферное давление - измеренное на уровне метеостанции атмосферное давление.
Tmin - Минимальная температура - минимум температуры воздуха на высоте 2 м над землей.
Tmax - Максимальная температура - максимум температуры воздуха на высоте 2 м над землей.
R - Количество осадков - Количество выпавших осадков за период времени, мм. При наведении курсора мыши на число - период времени, за который выпало указанное количество осадков.
R24 - Количество осадков - Количество выпавших осадков за 24 часа, мм.
S - Снежный покров - Высота снежного покрова, см. При наведении курсора мыши на число - состояние снежного покрова и степень покрытия местности в баллах.